Location: Unspecified
(47.4992°N, 121.7766°W)
Time: 13:33:46
(UTC-07:00)

Cosmos 1674 - Visible Passes

Search period start: 25 September 2018 00:00
Search period end: 05 October 2018 00:00
Orbit: 497 x 520 km, 82.5° (Epoch: 24 September)

Date Brightness Start Highest point End Pass type
(mag) Time Alt. Az. Time Alt. Az. Time Alt. Az.
25 Sep 3.0 20:15:15 10° N 20:18:59 45° ENE 20:21:15 21° SE visible
25 Sep 5.6 21:51:54 10° NW 21:54:10 15° W 21:56:09 11° WSW visible
26 Sep 3.3 19:58:05 10° N 20:01:41 35° ENE 20:04:44 13° SE visible
26 Sep 5.3 21:34:14 10° NW 21:37:00 19° W 21:39:38 10° SW visible
27 Sep 3.6 19:40:58 10° NNE 19:44:22 28° ENE 19:47:44 10° SE visible
27 Sep 5.0 21:16:42 10° NW 21:19:49 23° W 21:22:54 10° SW visible
28 Sep 3.9 19:23:55 10° NNE 19:27:02 23° ENE 19:30:08 10° SE visible
28 Sep 4.6 20:59:14 10° NNW 21:02:37 29° W 21:05:59 10° SSW visible
29 Sep 4.2 20:41:49 10° NNW 20:45:24 37° W 20:48:59 10° SSW visible
30 Sep 3.7 20:24:28 10° NNW 20:28:11 48° W 20:31:54 10° SSW visible
01 Oct 3.2 20:07:08 10° NNW 20:10:57 62° W 20:14:45 10° S visible
02 Oct 2.8 19:49:50 10° NNW 19:53:43 81° W 19:57:33 10° S visible
03 Oct 2.6 19:32:33 10° N 19:36:27 79° E 19:40:17 10° SSE visible
04 Oct 2.7 19:15:20 10° N 19:19:10 61° ENE 19:22:58 10° SSE visible
04 Oct 6.1 20:52:51 10° WNW 20:54:11 11° W 20:55:30 10° WSW visible
